This is the latest recevied weather packets stored in our database for station/object W0AKO. If no packets are shown the sender has not sent any weather packets the latest 10 day(s).
| Time | Temp. | Humidity | Pressure | Rain* | Wind** | Luminosity | Snow |
|---|---|---|---|---|---|---|---|
| 1777840215 | 29.44° C | 10% | 1011.5 hPa | 0 mm | - | 207 W/m² | - |
| 1777839912 | 30° C | 10% | 1011.5 hPa | 0 mm | - | 746 W/m² | - |
| 1777839610 | 30° C | 10% | 1011.4 hPa | 0 mm | - | 865 W/m² | - |
| 1777839308 | 29.44° C | 10% | 1011.6 hPa | 0 mm | - | 822 W/m² | - |
| 1777839005 | 29.44° C | 10% | 1011.8 hPa | 0 mm | - | 391 W/m² | - |
| 1777838701 | 30° C | 10% | 1011.8 hPa | 0 mm | - | 276 W/m² | - |
| 1777838397 | 30° C | 10% | 1011.8 hPa | 0 mm | - | 838 W/m² | - |
| 1777838095 | 29.44° C | 10% | 1012 hPa | 0 mm | - | 368 W/m² | - |
| 1777837791 | 29.44° C | 10% | 1012.2 hPa | 0 mm | - | 824 W/m² | - |
| 1777837489 | 29.44° C | 10% | 1012.3 hPa | 0 mm | - | 820 W/m² | - |
| 1777837184 | 28.89° C | 10% | 1012.5 hPa | 0 mm | - | 774 W/m² | - |
| 1777836880 | 28.89° C | 10% | 1012.5 hPa | 0 mm | - | 295 W/m² | - |
| 1777836575 | 28.33° C | 10% | 1013 hPa | 0 mm | - | 518 W/m² | - |
| 1777836272 | 28.33° C | 10% | 1012.7 hPa | 0 mm | - | 203 W/m² | - |
| 1777835967 | 28.33° C | 10% | 1013.1 hPa | 0 mm | - | 204 W/m² | - |
| 1777835666 | 28.33° C | 10% | 1013 hPa | 0 mm | - | 747 W/m² | - |
| 1777835362 | 28.89° C | 10% | 1013.3 hPa | 0 mm | - | 807 W/m² | - |
| 1777835059 | 27.78° C | 10% | 1013.3 hPa | 0 mm | - | 840 W/m² | - |
| 1777834756 | 27.22° C | 10% | 1013.2 hPa | 0 mm | - | 767 W/m² | - |
| 1777834452 | 26.67° C | 10% | 1013.8 hPa | 0 mm | - | 370 W/m² | - |
| 1777834151 | 26.67° C | 10% | 1013.5 hPa | 0 mm | - | 258 W/m² | - |
| 1777833849 | 26.67° C | 10% | 1013.9 hPa | 0 mm | - | 630 W/m² | - |
| 1777833545 | 26.67° C | 10% | 1014 hPa | 0 mm | - | 491 W/m² | - |
| 1777833241 | 26.11° C | 10% | 1014.2 hPa | 0 mm | - | 255 W/m² | - |
| 1777832939 | 26.11° C | 10% | 1014.3 hPa | 0 mm | - | 244 W/m² | - |
* Rain latest hour (hover to see other rain measurements)
** Current wind speed in m/s (hover to see current wind gust speed)